AirNav   Everest Fuels
 
 1010 users online  

0PA9 Carson Heliport
Perkasie, Pennsylvania, USA

GOING TO PERKASIE?


FAA INFORMATION EFFECTIVE 18 JUNE 2020

Location

FAA Identifier: 0PA9
Lat/Long: 40-20-00.3790N 075-12-58.6260W
40-20.006317N 075-12.977100W
40.3334386,-75.2162850
(estimated)
Elevation: 415 ft. / 126 m (estimated)
Variation: 12W (1985)
From city: 6 miles SE of PERKASIE, PA
Time zone: UTC -4 (UTC -5 during Standard Time)
Zip code: 18944

Heliport Operations

Heliport use: Private use. Permission required prior to landing
Activation date: 10/1961
Control tower: no
ARTCC: NEW YORK CENTER
FSS: WILLIAMSPORT FLIGHT SERVICE STATION
Attendance: UNATNDD
Wind indicator: yes
Segmented circle: no

Heliport Communications

WX ASOS at DYL (4 nm E): 118.875 (215-345-0392)
WX AWOS-3 at CKZ (5 nm NW): 126.325 (215-257-7291)
WX AWOS-3 at UKT (10 nm NW): 119.475 (215-538-7610)
WX AWOS-3 at LOM (12 nm S): 118.925 (215-646-1068)
WX ASOS at PTW (17 nm W): 119.425 (610-495-0823)
WX AWOS-3 at N40 (18 nm NE): 121.725
WX ASOS at PNE (18 nm SE): 121.15 (215-677-0146)
WX ASOS at TTN (19 nm E): 126.775 (609-538-8690)
WX AWOS-3 at XLL (19 nm NW): 127.875 (610-231-3111)

Nearby radio navigation aids

VOR radial/distance  VOR name  Freq  Var
ARDr299/14.9YARDLEY VOR/DME108.2010W
PTWr076/17.1POTTSTOWN VORTAC116.5009W
FJCr165/26.0ALLENTOWN VORTAC117.5010W
ETXr134/26.0EAST TEXAS VOR/DME110.2009W
SBJr245/26.3SOLBERG VOR/DME112.9010W
MXEr049/32.5MODENA VORTAC113.2009W
BWZr224/33.2BROADWAY VOR/DME114.2011W
RBVr293/33.9ROBBINSVILLE VORTAC113.8010W
GXUr316/34.4MC GUIRE VORTAC110.6012W

 
NDB name  Hdg/Dist  Freq  Var  ID
AMBLER026/12.827512WING .. -. --.

Heliport Services

Runway Information

Helipad H1

Dimensions: 200 x 200 ft. / 61 x 61 m
Surface: asphalt, in fair condition
Latitude: 40-20.006317N
Longitude: 075-12.977100W
Elevation: 415.0 ft.
Traffic pattern: leftleft
Markings: none, in fair condition

Heliport Ownership and Management from official FAA records

Ownership: Privately-owned
Owner: CARSON HELICOPTERS, INC.
952 BLOOMING GLEN RD
PERKASIE, PA 18944
Phone 215-249-3535
Manager: ROD MANOGUE
952 BLOOMING GLEN RD
PERKASIE, PA 18944
Phone 215-249-3535
RODM@CARSONHELICOPTERS.COM

Heliport Operational Statistics

Aircraft based on the field: 8
Helicopters: 8
    
Aircraft operations: 100/year *
100% local general aviation
* for 12-month period ending 14 February 1984

Additional Remarks

FOR CD CTC PHILADELPHIA APCH AT 800-354-9884.
APP HDGS 100/310, DEP HDGS 280/130

Instrument Procedures

There are no published instrument procedures at 0PA9.

Some nearby airports with instrument procedures:

KDYL - Doylestown Airport (4 nm E)
KCKZ - Pennridge Airport (5 nm NW)
KUKT - Quakertown Airport (10 nm NW)
KLOM - Wings Field Airport (12 nm S)
N10 - Perkiomen Valley Airport (12 nm SW)
KPTW - Heritage Field Airport (17 nm W)
N40 - Sky Manor Airport (18 nm NE)
N85 - Alexandria Airport (18 nm NE)
KPNE - Northeast Philadelphia Airport (18 nm SE)
KTTN - Trenton Mercer Airport (19 nm E)
 
Loc | Ops | Rwys | IFR | FBO | Links
Com | Nav | Svcs | Stats | Notes
Area around 0PA9 (Carson Heliport)
 
Road maps at: MapQuest Bing Google
 
Aerial photo
No photo
 
Sectional chart

 
Airport distance calculator
Flying to Carson Heliport? Find the distance to fly.

From to 0PA9

Sunrise and sunset
Times for 06-Jul-2020
 Local
(UTC-4)
 Zulu
(UTC)
Morning civil twilight05:0609:06
Sunrise05:3909:39
Sunset20:3200:32
Evening civil twilight21:0501:05

Current date and time
Zulu (UTC)  07-Jul-2020 00:57:55
Local (UTC-4)  06-Jul-2020 20:57:55
 
METAR
KDYL 
5nm E 
070054Z AUTO 01008KT 10SM -RA FEW055 SCT095 BKN120 21/19 A3005 RMK AO2 SLP171 P0003 T02110189
KCKZ 
5nm NW 
070035Z AUTO 00000KT 10SM FEW034 SCT042 SCT050 20/20 A3007 RMK AO2 P0004
KUKT 
10nm NW 
070055Z AUTO 00000KT 10SM CLR 20/20 A3006 RMK A01 P0004
KLOM 
12nm S 
070035Z AUTO 17003KT 10SM -RA SCT060 SCT070 BKN120 20/20 A3008 RMK AO2 P0003 T02050200
KPTW 
16nm W 
070054Z AUTO 20004KT 8SM FEW041 BKN095 BKN110 20/19 A3006 RMK AO2 LTG DSNT S RAE17B36E46 SLP174 P0001 T02000189
KPNE 
18nm SE 
070054Z AUTO 00000KT 10SM -RA SCT110 20/19 A3007 RMK AO2 RAB23 SLP181 P0000 T02000194
KTTN 
19nm E 
ASOS 133.70 609-538-8690
070053Z 20004KT 10SM CLR 22/18 A3004 RMK AO2 SLP163 T02170178
KXLL 
19nm NW 
070035Z AUTO 17003KT 10SM -RA CLR 21/19 A3006 RMK AO2
TAF
KPNE 
18nm SE 
062034Z 0621/0718 21010KT 6SM -SHRA VCTS SCT020CB BKN090 TEMPO 0621/0623 4SM -SHRA BR BKN025 OVC040 FM062300 VRB04KT P6SM VCSH BKN040 BKN100 FM070200 VRB02KT P6SM SCT100 FM070700 VRB02KT 4SM BR SCT010
KTTN 
19nm E 
062046Z 0621/0718 12012KT 6SM -SHRA SCT025 BKN100 TEMPO 0621/0623 4SM SHRA BKN025 OVC040 FM062300 13006KT P6SM BKN040 BKN150 FM070200 VRB03KT P6SM SCT080 FM070700 VRB02KT 4SM BR SCT012 FM071300 18005KT P6SM SCT200
NOTAMs
Click for the latest NOTAMs
NOTAMs are issued by the DoD/FAA and will open in a separate window not controlled by AirNav.

 

 
 

Would you like to see your business listed on this page?

 If your business provides an interesting product or service to pilots, flight crews, aircraft, or users of the Carson Heliport, you should consider listing it here.  To start the listing process, click on the button below
 
Add a business
 

Other Pages about Carson Heliport

Update a link
 
Copyright © AirNav, LLC. All rights reserved. Privacy Policy  Contact